Location: Aytr�
(46.1357°N, 1.1145°W)
Time: 19:31:44
(UTC+00:00)

Cosmos 1844 Rocket - Pass Details

Date: 03 March 2021
Orbit: 826 x 843 km, 71.0° (Epoch: 20 April)

Event Time Altitude Azimuth Distance (km) Brightness Sun altitude
Rises 20:05:40 0° 327° (NNW) 3,374 6.6 -23.4°
Reaches altitude 10° 20:08:13 10° 321° (NW) 2,436 5.8 -23.9°
Maximum altitude 20:13:23 40° 253° (WSW) 1,196 3.8 -24.7°
Enters shadow 20:18:02 12° 187° (S) 2,254 4.8 -25.5°
